SWA2896 KLAX-KSFO

Flight info

Callsign SWA2896
Flight time 0h 53m
Altitude 38000
Route SUMMR2 STOKD SERFR SERFR4
Aircraft B737/M-SDE2E3FGHIRWXY/LB1

Departure

Time 2026-04-22 04:04
Airport Los Angeles International Airport (KLAX)

Arrival

Time 2026-04-22 04:58
Airport San Francisco International Airport (KSFO)
Time Latitude Longitude Altitude Speed Heading
2026-04-22 03:33 33.94729 -118.40069 94 ft 0 kts 263°
2026-04-22 03:54 33.94729 -118.40068 94 ft 1 kts 264°
2026-04-22 03:54 33.94732 -118.40039 95 ft 4 kts 268°
2026-04-22 03:54 33.94730 -118.40020 92 ft 2 kts 307°
2026-04-22 03:55 33.94721 -118.40012 93 ft 2 kts 352°
2026-04-22 03:55 33.94710 -118.40011 94 ft 2 kts 358°
2026-04-22 03:55 33.94708 -118.40011 94 ft 0 kts 358°
2026-04-22 03:58 33.94710 -118.40011 94 ft 1 kts 358°
2026-04-22 03:58 33.94735 -118.40011 78 ft 6 kts
2026-04-22 03:58 33.94796 -118.40004 94 ft 11 kts
2026-04-22 03:59 33.94848 -118.40056 97 ft 10 kts 291°
2026-04-22 03:59 33.94908 -118.40076 98 ft 10 kts 26°
2026-04-22 03:59 33.94925 -118.40001 98 ft 9 kts 84°
2026-04-22 03:59 33.94939 -118.39935 99 ft 5 kts 53°
2026-04-22 04:00 33.94949 -118.39925 100 ft 0 kts 38°
2026-04-22 04:01 33.94967 -118.39914 102 ft 5 kts 21°
2026-04-22 04:02 33.95015 -118.39913 107 ft 8 kts 350°
2026-04-22 04:02 33.95042 -118.39958 108 ft 2 kts 265°
2026-04-22 04:02 33.95042 -118.39960 108 ft 0 kts 264°
2026-04-22 04:03 33.95041 -118.39962 108 ft 1 kts 264°
2026-04-22 04:03 33.95029 -118.40078 108 ft 43 kts 263°
2026-04-22 04:04 33.94962 -118.40739 108 ft 113 kts 263°
2026-04-22 04:04 33.94844 -118.41888 240 ft 154 kts 263°
2026-04-22 04:04 33.94712 -118.43223 850 ft 168 kts 264°
2026-04-22 04:04 33.94583 -118.44654 1601 ft 173 kts 265°
2026-04-22 04:05 33.94438 -118.46118 2292 ft 184 kts 264°
2026-04-22 04:05 33.94264 -118.47748 2583 ft 208 kts 267°
2026-04-22 04:05 33.94205 -118.49566 3033 ft 223 kts 269°
2026-04-22 04:05 33.94162 -118.51527 3388 ft 247 kts 269°
2026-04-22 04:06 33.94026 -118.53626 4177 ft 250 kts 264°
2026-04-22 04:06 33.93853 -118.55722 4763 ft 252 kts 264°
2026-04-22 04:06 33.93685 -118.57828 5014 ft 254 kts 264°
2026-04-22 04:06 33.93516 -118.59949 5022 ft 254 kts 264°
2026-04-22 04:07 33.93349 -118.62068 5031 ft 254 kts 264°
2026-04-22 04:07 33.93315 -118.62505 5029 ft 254 kts 264°
2026-04-22 04:07 33.92850 -118.68460 6591 ft 257 kts 264°
2026-04-22 04:08 33.92685 -118.70598 7549 ft 257 kts 263°
2026-04-22 04:08 33.92518 -118.72738 8535 ft 257 kts 263°
2026-04-22 04:08 33.92351 -118.74892 9517 ft 259 kts 263°
2026-04-22 04:08 33.92182 -118.77062 10437 ft 264 kts 263°
2026-04-22 04:09 33.92000 -118.79364 10738 ft 290 kts 263°
2026-04-22 04:09 33.91801 -118.81876 11089 ft 310 kts 263°
2026-04-22 04:09 33.91655 -118.84495 11864 ft 316 kts 268°
2026-04-22 04:09 33.91720 -118.87142 12818 ft 317 kts 270°
2026-04-22 04:10 33.91841 -118.89790 13734 ft 319 kts 270°
2026-04-22 04:10 33.91954 -118.92467 14547 ft 322 kts 270°
2026-04-22 04:10 33.92047 -118.95178 15339 ft 326 kts 270°
2026-04-22 04:10 33.92131 -118.97928 16150 ft 330 kts 270°
2026-04-22 04:11 33.92314 -119.00701 16954 ft 336 kts 278°
2026-04-22 04:11 33.93081 -119.03394 17767 ft 346 kts 292°
2026-04-22 04:11 33.94313 -119.05914 18548 ft 352 kts 297°
2026-04-22 04:11 33.95647 -119.08405 19248 ft 356 kts 298°
2026-04-22 04:12 33.96995 -119.10919 19974 ft 358 kts 297°
2026-04-22 04:12 33.98328 -119.13457 20722 ft 360 kts 297°
2026-04-22 04:12 33.99657 -119.16026 21408 ft 363 kts 297°
2026-04-22 04:12 34.01116 -119.18531 22083 ft 371 kts 307°
2026-04-22 04:13 34.03069 -119.20583 22769 ft 381 kts 317°
2026-04-22 04:13 34.05226 -119.22460 23450 ft 385 kts 318°
2026-04-22 04:13 34.07444 -119.24319 24002 ft 390 kts 319°
2026-04-22 04:13 34.09685 -119.26190 24529 ft 393 kts 319°
2026-04-22 04:14 34.11933 -119.28080 25092 ft 394 kts 318°
2026-04-22 04:14 34.14185 -119.29992 25633 ft 397 kts 318°
2026-04-22 04:14 34.16446 -119.31925 26115 ft 400 kts 318°
2026-04-22 04:14 34.18722 -119.33882 26621 ft 403 kts 318°
2026-04-22 04:15 34.21005 -119.35850 27131 ft 405 kts 318°
2026-04-22 04:15 34.23263 -119.37799 27598 ft 408 kts 318°
2026-04-22 04:15 34.25546 -119.39772 28037 ft 411 kts 318°
2026-04-22 04:15 34.27910 -119.41816 28513 ft 413 kts 318°
2026-04-22 04:16 34.30257 -119.43846 28978 ft 416 kts 318°
2026-04-22 04:16 34.34954 -119.47913 29837 ft 421 kts 318°
2026-04-22 04:16 34.37310 -119.49954 30274 ft 422 kts 318°
2026-04-22 04:17 34.39688 -119.52014 30798 ft 420 kts 318°
2026-04-22 04:17 34.41909 -119.54063 31313 ft 413 kts 312°
2026-04-22 04:17 34.43972 -119.56459 31782 ft 409 kts 309°
2026-04-22 04:17 34.45959 -119.58934 32213 ft 409 kts 308°
2026-04-22 04:18 34.47936 -119.61446 32716 ft 407 kts 308°
2026-04-22 04:18 34.49886 -119.63916 33213 ft 404 kts 308°
2026-04-22 04:18 34.51840 -119.66375 33589 ft 406 kts 308°
2026-04-22 04:18 34.53807 -119.68833 33939 ft 407 kts 308°
2026-04-22 04:19 34.55782 -119.71284 34377 ft 405 kts 308°
2026-04-22 04:19 34.57743 -119.73708 34784 ft 403 kts 308°
2026-04-22 04:19 34.59710 -119.76140 35070 ft 404 kts 308°
2026-04-22 04:19 34.61677 -119.78571 35374 ft 404 kts 308°
2026-04-22 04:20 34.63639 -119.80995 35743 ft 402 kts 308°
2026-04-22 04:20 34.64935 -119.82598 35992 ft 402 kts 308°
2026-04-22 04:20 34.66897 -119.85026 36278 ft 402 kts 308°
2026-04-22 04:20 34.68856 -119.87454 36553 ft 403 kts 308°
2026-04-22 04:21 34.70814 -119.89882 36891 ft 402 kts 308°
2026-04-22 04:21 34.72774 -119.92313 37241 ft 401 kts 308°
2026-04-22 04:21 34.74724 -119.94732 37551 ft 400 kts 308°
2026-04-22 04:21 34.76670 -119.97148 37871 ft 399 kts 307°
2026-04-22 04:22 34.78606 -119.99555 38136 ft 398 kts 308°
2026-04-22 04:22 34.82496 -120.04400 38150 ft 400 kts 308°
2026-04-22 04:23 34.86359 -120.09214 38147 ft 399 kts 307°
2026-04-22 04:23 34.90249 -120.14069 38150 ft 399 kts 307°
2026-04-22 04:24 34.94115 -120.18901 38143 ft 398 kts 307°
2026-04-22 04:24 34.97976 -120.23735 38148 ft 397 kts 307°
2026-04-22 04:25 35.01827 -120.28563 38151 ft 396 kts 307°
2026-04-22 04:25 35.05640 -120.33351 38149 ft 396 kts 307°
2026-04-22 04:26 35.09499 -120.38168 38146 ft 398 kts 309°
2026-04-22 04:26 35.13574 -120.42775 38156 ft 400 kts 310°
2026-04-22 04:27 35.17703 -120.47323 38155 ft 399 kts 310°
2026-04-22 04:27 35.21809 -120.51891 38173 ft 399 kts 310°
2026-04-22 04:28 35.25903 -120.56483 38161 ft 400 kts 310°
2026-04-22 04:28 35.30011 -120.61107 38165 ft 402 kts 310°
2026-04-22 04:29 35.34145 -120.65767 38157 ft 405 kts 310°
2026-04-22 04:29 35.38271 -120.70422 38164 ft 406 kts 310°
2026-04-22 04:30 35.42440 -120.75133 38131 ft 408 kts 310°
2026-04-22 04:30 35.46526 -120.79755 38166 ft 407 kts 310°
2026-04-22 04:31 35.50876 -120.84368 38168 ft 412 kts 315°
2026-04-22 04:31 35.55488 -120.88584 38179 ft 413 kts 316°
2026-04-22 04:32 35.60119 -120.92778 38158 ft 413 kts 315°
2026-04-22 04:32 35.64720 -120.97013 38163 ft 412 kts 315°
2026-04-22 04:33 35.69294 -121.01266 38164 ft 412 kts 315°
2026-04-22 04:33 35.73861 -121.05527 38165 ft 412 kts 314°
2026-04-22 04:34 35.78434 -121.09800 38010 ft 415 kts 315°
2026-04-22 04:34 35.80741 -121.11961 37508 ft 417 kts 315°
2026-04-22 04:34 35.83019 -121.14091 36917 ft 417 kts 315°
2026-04-22 04:34 35.85324 -121.16247 36405 ft 414 kts 314°
2026-04-22 04:35 35.87606 -121.18380 36044 ft 408 kts 314°
2026-04-22 04:35 35.89858 -121.20489 35518 ft 407 kts 314°
2026-04-22 04:35 35.92105 -121.22598 35103 ft 403 kts 314°
2026-04-22 04:35 35.94335 -121.24694 34647 ft 401 kts 314°
2026-04-22 04:36 35.96549 -121.26776 34191 ft 400 kts 314°
2026-04-22 04:36 35.98758 -121.28855 33703 ft 398 kts 314°
2026-04-22 04:36 36.00954 -121.30923 33230 ft 395 kts 314°
2026-04-22 04:36 36.03132 -121.32973 32799 ft 392 kts 314°
2026-04-22 04:37 36.05265 -121.34982 32371 ft 389 kts 314°
2026-04-22 04:37 36.07427 -121.36993 31917 ft 389 kts 315°
2026-04-22 04:37 36.09695 -121.38874 31324 ft 395 kts 318°
2026-04-22 04:37 36.12021 -121.40668 30854 ft 394 kts 319°
2026-04-22 04:38 36.14356 -121.42434 30461 ft 392 kts 319°
2026-04-22 04:38 36.16676 -121.44194 29985 ft 390 kts 319°
2026-04-22 04:38 36.18971 -121.45952 29535 ft 386 kts 319°
2026-04-22 04:38 36.21237 -121.47701 29074 ft 382 kts 318°
2026-04-22 04:39 36.23478 -121.49443 28635 ft 378 kts 318°
2026-04-22 04:39 36.25697 -121.51176 28200 ft 377 kts 318°
2026-04-22 04:39 36.27861 -121.52871 27747 ft 375 kts 318°
2026-04-22 04:39 36.30052 -121.54588 27325 ft 371 kts 318°
2026-04-22 04:40 36.32223 -121.56291 26899 ft 367 kts 318°
2026-04-22 04:40 36.34379 -121.57983 26478 ft 365 kts 318°
2026-04-22 04:40 36.36517 -121.59663 26058 ft 362 kts 318°
2026-04-22 04:40 36.38634 -121.61329 25631 ft 360 kts 317°
2026-04-22 04:41 36.40747 -121.62992 25216 ft 359 kts 317°
2026-04-22 04:41 36.42854 -121.64652 24772 ft 358 kts 317°
2026-04-22 04:41 36.44926 -121.66284 24355 ft 356 kts 317°
2026-04-22 04:41 36.47015 -121.67930 23930 ft 355 kts 317°
2026-04-22 04:42 36.49105 -121.69577 23444 ft 356 kts 318°
2026-04-22 04:42 36.51196 -121.71229 22825 ft 358 kts 318°
2026-04-22 04:42 36.53299 -121.72891 22385 ft 357 kts 318°
2026-04-22 04:42 36.55390 -121.74541 21896 ft 355 kts 318°
2026-04-22 04:43 36.57457 -121.76174 21472 ft 353 kts 318°
2026-04-22 04:43 36.59523 -121.77808 21027 ft 351 kts 319°
2026-04-22 04:43 36.61582 -121.79439 20609 ft 349 kts 319°
2026-04-22 04:43 36.63625 -121.81058 20186 ft 347 kts 319°
2026-04-22 04:44 36.65665 -121.82677 19773 ft 347 kts 319°
2026-04-22 04:44 36.67672 -121.84271 19345 ft 346 kts 319°
2026-04-22 04:44 36.69705 -121.85885 18897 ft 346 kts 319°
2026-04-22 04:44 36.71738 -121.87501 18459 ft 346 kts 320°
2026-04-22 04:45 36.73782 -121.89092 17960 ft 348 kts 324°
2026-04-22 04:45 36.76093 -121.90142 17389 ft 360 kts 341°
2026-04-22 04:45 36.78546 -121.90818 16869 ft 362 kts 343°
2026-04-22 04:45 36.81011 -121.91438 16397 ft 360 kts 343°
2026-04-22 04:46 36.83460 -121.92064 15960 ft 358 kts 343°
2026-04-22 04:46 36.85891 -121.92709 15526 ft 356 kts 343°
2026-04-22 04:46 36.88307 -121.93370 15095 ft 354 kts 343°
2026-04-22 04:46 36.90712 -121.94040 14650 ft 353 kts 343°
2026-04-22 04:47 36.93103 -121.94710 14223 ft 352 kts 343°
2026-04-22 04:47 36.95487 -121.95391 13759 ft 350 kts 342°
2026-04-22 04:47 36.97824 -121.96219 13286 ft 348 kts 339°
2026-04-22 04:47 37.00132 -121.97131 12845 ft 345 kts 338°
2026-04-22 04:48 37.02402 -121.98048 12419 ft 343 kts 338°
2026-04-22 04:48 37.04633 -121.98947 11992 ft 341 kts 338°
2026-04-22 04:48 37.06885 -121.99844 11566 ft 338 kts 338°
2026-04-22 04:48 37.09116 -122.00726 11146 ft 336 kts 339°
2026-04-22 04:49 37.11316 -122.01589 11005 ft 324 kts 338°
2026-04-22 04:49 37.13456 -122.02427 10452 ft 327 kts 339°
2026-04-22 04:49 37.15613 -122.03274 10153 ft 318 kts 339°
2026-04-22 04:49 37.17694 -122.04087 9854 ft 305 kts 338°
2026-04-22 04:50 37.19706 -122.04876 9369 ft 307 kts 339°
2026-04-22 04:50 37.21730 -122.05671 9023 ft 304 kts 339°
2026-04-22 04:50 37.23753 -122.06465 8624 ft 303 kts 339°
2026-04-22 04:50 37.25751 -122.07250 8275 ft 300 kts 339°
2026-04-22 04:51 37.27733 -122.08027 7916 ft 298 kts 339°
2026-04-22 04:51 37.29710 -122.08804 7543 ft 296 kts 339°
2026-04-22 04:51 37.31666 -122.09575 7171 ft 295 kts 339°
2026-04-22 04:51 37.33622 -122.10347 6786 ft 293 kts 339°
2026-04-22 04:52 37.35536 -122.11102 6408 ft 292 kts 340°
2026-04-22 04:52 37.37477 -122.11868 6010 ft 291 kts 340°
2026-04-22 04:52 37.39423 -122.12569 5645 ft 290 kts 342°
2026-04-22 04:52 37.41365 -122.13224 5252 ft 288 kts 343°
2026-04-22 04:53 37.43289 -122.13872 4911 ft 285 kts 343°
2026-04-22 04:53 37.45211 -122.14526 4272 ft 293 kts 342°
2026-04-22 04:53 37.47144 -122.15184 4069 ft 279 kts 343°
2026-04-22 04:53 37.48977 -122.15811 3899 ft 270 kts 342°
2026-04-22 04:54 37.50764 -122.16426 3541 ft 262 kts 342°
2026-04-22 04:54 37.52470 -122.17077 3230 ft 252 kts 332°
2026-04-22 04:54 37.53788 -122.18408 2924 ft 236 kts 305°
2026-04-22 04:54 37.54644 -122.20135 2681 ft 228 kts 295°
2026-04-22 04:55 37.55367 -122.21885 2389 ft 222 kts 294°
2026-04-22 04:55 37.56064 -122.23586 2096 ft 215 kts 295°
2026-04-22 04:55 37.56739 -122.25222 1838 ft 206 kts 295°
2026-04-22 04:55 37.57380 -122.26769 1567 ft 198 kts 295°
2026-04-22 04:56 37.58009 -122.28275 1352 ft 188 kts 295°
2026-04-22 04:56 37.58593 -122.29676 1193 ft 172 kts 295°
2026-04-22 04:56 37.59123 -122.30968 934 ft 159 kts 295°
2026-04-22 04:56 37.59604 -122.32105 768 ft 141 kts 296°
2026-04-22 04:57 37.60045 -122.33156 537 ft 133 kts 295°
2026-04-22 04:57 37.60486 -122.34178 367 ft 132 kts 295°
2026-04-22 04:57 37.60903 -122.35200 206 ft 131 kts 295°
2026-04-22 04:57 37.61329 -122.36209 29 ft 130 kts 295°
2026-04-22 04:58 37.61693 -122.37078 22 ft 84 kts 297°
2026-04-22 04:58 37.61873 -122.37511 21 ft 37 kts 297°
2026-04-22 04:58 37.61979 -122.37762 21 ft 22 kts 298°
2026-04-22 04:58 37.61994 -122.37892 23 ft 13 kts 239°
2026-04-22 04:59 37.61939 -122.37970 21 ft 11 kts 226°
2026-04-22 04:59 37.61871 -122.37997 21 ft 11 kts 174°
2026-04-22 04:59 37.61799 -122.37955 21 ft 12 kts 156°
2026-04-22 04:59 37.61714 -122.37944 21 ft 12 kts 184°
2026-04-22 05:00 37.61653 -122.37974 22 ft 5 kts 223°
2026-04-22 05:00 37.61658 -122.38013 21 ft 5 kts 299°
2026-04-22 05:00 37.61673 -122.38052 21 ft 4 kts 297°
2026-04-22 05:00 37.61676 -122.38058 21 ft 0 kts 296°